Miscellaneous Local Product
Issued by NWS North Platte, NE

Home | Current Version | Previous Version | Graphics & Text | Print | Product List | Glossary On
Versions: 1 2 3 4 5 6 7 8 9 10 11 12 13 14 15 16 17 18 19 20 21 22 23 24 25 26 27 28 29 30 31 32 33 34 35 36 37 38 39 40 41 42 43 44 45 46 47 48 49 50
000
AXUS43 KLBF 210910
MISLBF


WESTERN AND NORTH CENTRAL NEBRASKA HOURLY WEATHER ROUNDUP
NATIONAL WEATHER SERVICE NORTH PLATTE NE
300 AM CST TUE NOV 21 2017

NOTE: "FAIR" INDICATES FEW OR NO CLOUDS BELOW 12,000 FEET WITH NO
SIGNIFICANT WEATHER AND/OR OBSTRUCTIONS TO VISIBILITY.

NOTE: STATIONS NOT REPORTING VARIABLES SUCH AS SKY/WEATHER OR
PRESSURE ARE PROVIDED BY RAWS AND APRS NETWORKS AND ARE NOT UNDER
NATIONAL WEATHER SERVICE QUALITY CONTROL.

...OBSERVATIONS IN AND NEAR THE EASTERN PANHANDLE OF NEBRASKA...

CITY           SKY/WX    TMP DP  RH WIND       PRES   REMARKS
PINE RIDGE     CLOUDY    36  25  64 N20       30.01R WCI  25
GORDON         CLOUDY    36  24  64 N17G23    29.96R WCI  25
CHADRON        CLOUDY    37  27  67 NE20G28   30.01R WCI  27
ALLIANCE       CLOUDY    39  25  57 N23G31    29.93R WCI  28
SIDNEY         PTCLDY    41  17  38 NW8       29.92R
CRESCENT LAKE    N/A     43  26  50 N15G22      N/A
$$

...OBSERVATIONS IN NORTHERN NEBRASKA AND FAR SOUTHERN SOUTH DAKOTA...

CITY           SKY/WX    TMP DP  RH WIND       PRES   REMARKS
WINNER         LGT SNOW  34  31  88 NW15      30.00R FOG     WCI  24
VALENTINE      CLOUDY    40  24  53 N24G37    29.94R WCI  29
THEDFORD       MOCLDY    42  27  55 N9G17     29.90R
AINSWORTH      CLOUDY    38  27  62 N23G37    29.92R WCI  28
O`NEILL        CLOUDY    40  21  46 N17G24    29.90R WCI  31
ORD            CLOUDY    44  26  49 N14       29.84R
BROKEN BOW     CLOUDY    42  25  50 N9        29.83R
VALENTINE NWR    N/A     40  26  56 N9          N/A  WCI  34
HALSEY           N/A     35  23  61 NW5         N/A  WCI  31
BUTTE            N/A     35  29  78 NW26G37     N/A  WCI  22
CHAMBERS         N/A     41  21  45 W7          N/A
EWING            N/A     40  26  57 N6          N/A
$$

...OBSERVATIONS IN SOUTHWEST NEBRASKA AND FAR NORTHEAST COLORADO...

CITY           SKY/WX    TMP DP  RH WIND       PRES   REMARKS
HOLYOKE        FAIR      54  18  24 NW8       29.88R
IMPERIAL       CLOUDY    49  23  36 NW5       29.86R
OGALLALA       CLOUDY    44  25  46 CALM      29.86R
NORTH PLATTE   CLOUDY    39  31  72 N7        29.85R WCI  34
MCCOOK         CLOUDY    52  29  41 N8        29.84R
LEXINGTON      CLOUDY    39  28  64 W7        29.85R WCI  34
STAPLETON        N/A     36  26  65 CALM        N/A
GOTHENBURG       N/A     38  24  56 W5          N/A  WCI  34
CALLAWAY         N/A     43  25  49 N12         N/A
$$

...OBSERVATIONS IN CENTRAL LINCOLN COUNTY AREA...

CITY           SKY/WX    TMP DP  RH WIND       PRES   REMARKS
N.P. AIRPORT   CLOUDY    39  31  72 N7        29.85R WCI  34
N.P. DOWNTOWN    N/A     40  29  64 CALM        N/A
N.P. SOUTHEAST   N/A     40  28  61 CALM        N/A
N.P. HILLCREST   N/A     41  28  59 N6          N/A
$$

...SOME OBSERVATIONS FROM AROUND THE REGION...

CITY           SKY/WX    TMP DP  RH WIND       PRES   REMARKS
DENVER         CLOUDY    54  15  21 NW17      29.96R
LIMON          CLOUDY    38  16  40 NW5       29.96R WCI  34
ASPEN          CLOUDY    32  23  69 CALM      30.20S
LARAMIE        CLOUDY    36  29  75 W22       30.01R WCI  25
CASPER         CLOUDY    36  27  69 W8        30.01R WCI  30
CHEYENNE       CLOUDY    43  28  55 W21G33    29.98R
SCOTTSBLUFF    CLEAR     46  28  49 NW16      29.94R
GRAND ISLAND   CLOUDY    37  28  70 W6        29.82R WCI  32
OMAHA          CLOUDY    36  28  73 N9        29.76R WCI  29
SIOUX FALLS    CLOUDY    38  20  48 NW13      29.84R WCI  30
PIERRE         FLURRIES  34  16  47 N23G31    29.98R WCI  22
RAPID CITY     FLURRIES  28  24  85 N21G30    30.05R WCI  15
BISMARCK       CLOUDY    19   7  59 NW20G28   30.07R WCI   3
KANSAS CITY    PTCLDY    44  31  60 SW8       29.76R
HILL CITY      CLOUDY    47  25  42 N15       29.82R
WICHITA        CLOUDY    38  31  76 S9        29.77S WCI  31
DODGE CITY     PTCLDY    44  21  40 NW9       29.80R
OKLAHOMA CITY  CLOUDY    41  32  70 S8        29.78F
DALLAS         MOCLDY    51  41  68 S12       29.86S
AMARILLO       CLOUDY    49  12  22 NW14      29.81R
$$




USA.gov is the U.S. government's official web portal to all federal, state and local government web resources and services.